When you browse on this site, cookies collect data to enhance your experience and personalize the content and advertising you see.
Visit our Privacy Policy to learn more. By continuing to use the site, you agree to this use of cookies and data.
  • In Romania
  • List of Countries
  • For 7 days
  • Water Temperature
  • Satellite Maps
  • Weather Map
  • Weather Widgets
  • user-avatar
    Login

    Hourly Weather Arpajon

    Today, 16 February, Saturday

    Time Temperature Precipitation Wind Pressure Humidity
    00:00 +8°C° 0 mm 1 mps 761 mmHg 71%
    01:00 +8°C° 0 mm 1 mps 761 mmHg 73%
    02:00 +7°C° 0 mm 1 mps 761 mmHg 74%
    03:00 +7°C° 0 mm 1 mps 761 mmHg 76%
    04:00 +5°C° 0 mm 2 mps 761 mmHg 77%
    05:00 +5°C° 0 mm 2 mps 761 mmHg 79%
    06:00 +5°C° 0 mm 2 mps 761 mmHg 81%
    07:00 +6°C° 0 mm 2 mps 761 mmHg 79%
    08:00 +6°C° 0 mm 2 mps 761 mmHg 76%
    09:00 +7°C° 0 mm 2 mps 761 mmHg 74%
    10:00 +9°C° 0 mm 2 mps 761 mmHg 68%
    11:00 +10°C° 0 mm 2 mps 761 mmHg 63%
    12:00 +13°C° 0 mm 2 mps 761 mmHg 57%
    13:00 +14°C° 0 mm 2 mps 760 mmHg 56%
    14:00 +14°C° 0 mm 2 mps 760 mmHg 54%
    15:00 +15°C° 0 mm 2 mps 760 mmHg 53%
    16:00 +13°C° 0 mm 2 mps 759 mmHg 58%
    17:00 +12°C° 0 mm 2 mps 759 mmHg 62%
    18:00 +10°C° 0 mm 2 mps 759 mmHg 67%
    19:00 +9°C° 0 mm 2 mps 759 mmHg 68%
    20:00 +9°C° 0 mm 2 mps 759 mmHg 69%
    21:00 +8°C° 0 mm 2 mps 759 mmHg 70%
    22:00 +8°C° 0 mm 2 mps 759 mmHg 70%
    23:00 +7°C° 0 mm 2 mps 758 mmHg 70%

    Tomorrow, 17 February, Sunday

    Time Temperature Precipitation Wind Pressure Humidity
    00:00 +7°C° 0 mm 2 mps 758 mmHg 70%
    01:00 +7°C° 0 mm 2 mps 758 mmHg 70%
    02:00 +5°C° 0 mm 3 mps 757 mmHg 69%
    03:00 +5°C° 0 mm 3 mps 757 mmHg 69%
    04:00 +5°C° 0 mm 3 mps 757 mmHg 68%
    05:00 +5°C° 0 mm 3 mps 757 mmHg 67%
    06:00 +4°C° 0 mm 3 mps 757 mmHg 66%
    07:00 +5°C° 0 mm 4 mps 757 mmHg 62%
    08:00 +6°C° 0 mm 4 mps 757 mmHg 58%
    09:00 +7°C° 0 mm 5 mps 757 mmHg 54%
    10:00 +8°C° 0 mm 5 mps 757 mmHg 51%
    11:00 +10°C° 0 mm 5 mps 757 mmHg 48%
    12:00 +13°C° 0 mm 5 mps 757 mmHg 45%
    13:00 +13°C° 0 mm 5 mps 756 mmHg 45%
    14:00 +14°C° 0 mm 4 mps 756 mmHg 45%
    15:00 +14°C° 0 mm 4 mps 756 mmHg 45%
    16:00 +13°C° 0 mm 3 mps 756 mmHg 51%
    17:00 +12°C° 0 mm 3 mps 756 mmHg 56%
    18:00 +10°C° 0 mm 2 mps 756 mmHg 61%
    19:00 +10°C° 0 mm 2 mps 756 mmHg 64%
    20:00 +9°C° 0 mm 2 mps 756 mmHg 67%
    21:00 +8°C° 0 mm 2 mps 756 mmHg 70%
    22:00 +8°C° 0 mm 2 mps 756 mmHg 73%
    23:00 +8°C° 0 mm 2 mps 756 mmHg 75%

    Day after tomorrow, 18 February, Monday

    Time Temperature Precipitation Wind Pressure Humidity
    00:00 +7°C° 0 mm 2 mps 756 mmHg 77%
    01:00 +7°C° 0 mm 2 mps 755 mmHg 79%
    02:00 +7°C° 0 mm 2 mps 755 mmHg 82%
    03:00 +6°C° 0 mm 2 mps 755 mmHg 84%
    04:00 +6°C° 0 mm 2 mps 755 mmHg 85%
    05:00 +6°C° 0 mm 2 mps 755 mmHg 86%
    06:00 +4°C° 0 mm 3 mps 755 mmHg 87%
    07:00 +5°C° 0 mm 3 mps 755 mmHg 83%
    08:00 +7°C° 0 mm 3 mps 755 mmHg 78%
    09:00 +7°C° 0 mm 3 mps 755 mmHg 74%
    10:00 +9°C° 0 mm 3 mps 755 mmHg 69%
    11:00 +10°C° 0 mm 3 mps 755 mmHg 65%
    12:00 +12°C° 0 mm 3 mps 755 mmHg 60%
    13:00 +12°C° 0 mm 3 mps 754 mmHg 60%
    14:00 +13°C° 0 mm 4 mps 754 mmHg 59%
    15:00 +13°C° 0 mm 4 mps 753 mmHg 58%
    16:00 +12°C° 0 mm 3 mps 753 mmHg 63%
    17:00 +11°C° 0 mm 3 mps 753 mmHg 68%
    18:00 +10°C° 0 mm 2 mps 753 mmHg 73%
    19:00 +10°C° 0 mm 2 mps 753 mmHg 75%
    20:00 +9°C° 0 mm 3 mps 753 mmHg 76%
    21:00 +9°C° 0 mm 3 mps 754 mmHg 78%
    22:00 +9°C° 0.1 mm 3 mps 754 mmHg 81%
    23:00 +9°C° 0.1 mm 3 mps 754 mmHg 85%

    19 February, Tuesday

    Time Temperature Precipitation Wind Pressure Humidity
    00:00 +7°C° 0.1 mm 4 mps 754 mmHg 89%
    01:00 +8°C° 0.2 mm 3 mps 754 mmHg 88%
    02:00 +8°C° 0.2 mm 3 mps 754 mmHg 88%
    03:00 +7°C° 0.2 mm 3 mps 754 mmHg 88%
    04:00 +7°C° 0 mm 3 mps 755 mmHg 88%
    05:00 +7°C° 0 mm 3 mps 755 mmHg 87%
    06:00 +5°C° 0 mm 3 mps 756 mmHg 87%
    07:00 +5°C° 0 mm 3 mps 756 mmHg 87%
    08:00 +5°C° 0 mm 3 mps 757 mmHg 87%
    09:00 +5°C° 0 mm 3 mps 757 mmHg 87%
    10:00 +7°C° 0 mm 3 mps 757 mmHg 84%
    11:00 +8°C° 0 mm 3 mps 758 mmHg 81%
    12:00 +8°C° 0 mm 3 mps 758 mmHg 78%
    13:00 +9°C° 0 mm 3 mps 758 mmHg 76%
    14:00 +9°C° 0 mm 3 mps 757 mmHg 73%
    15:00 +9°C° 0 mm 3 mps 757 mmHg 71%
    16:00 +9°C° 0 mm 2 mps 757 mmHg 75%
    17:00 +8°C° 0 mm 2 mps 757 mmHg 79%
    18:00 +8°C° 0 mm 1 mps 757 mmHg 82%
    19:00 +8°C° 0 mm 1 mps 758 mmHg 84%
    20:00 +7°C° 0 mm 1 mps 758 mmHg 85%
    21:00 +7°C° 0 mm 1 mps 758 mmHg 86%
    22:00 +6°C° 0 mm 2 mps 758 mmHg 87%
    23:00 +6°C° 0 mm 2 mps 758 mmHg 88%

    20 February, Wednesday

    Time Temperature Precipitation Wind Pressure Humidity
    00:00 +5°C° 0 mm 2 mps 758 mmHg 89%
    01:00 +5°C° 0 mm 2 mps 758 mmHg 89%
    02:00 +5°C° 0 mm 2 mps 758 mmHg 90%
    03:00 +5°C° 0 mm 2 mps 757 mmHg 90%
    04:00 +5°C° 0 mm 2 mps 757 mmHg 90%
    05:00 +4°C° 0 mm 2 mps 757 mmHg 91%
    06:00 +4°C° 0 mm 2 mps 757 mmHg 91%
    07:00 +5°C° 0 mm 2 mps 758 mmHg 88%
    08:00 +5°C° 0 mm 3 mps 758 mmHg 85%
    09:00 +7°C° 0 mm 3 mps 758 mmHg 82%
    10:00 +8°C° 0 mm 3 mps 758 mmHg 76%
    11:00 +10°C° 0 mm 3 mps 758 mmHg 70%
    12:00 +11°C° 0 mm 3 mps 758 mmHg 64%
    13:00 +12°C° 0 mm 3 mps 758 mmHg 63%
    14:00 +12°C° 0 mm 3 mps 758 mmHg 62%
    15:00 +13°C° 0 mm 4 mps 758 mmHg 61%
    16:00 +12°C° 0 mm 3 mps 758 mmHg 66%
    17:00 +12°C° 0 mm 2 mps 758 mmHg 72%
    18:00 +10°C° 0 mm 2 mps 758 mmHg 78%
    19:00 +9°C° 0 mm 2 mps 758 mmHg 80%
    20:00 +9°C° 0 mm 2 mps 759 mmHg 83%
    21:00 +8°C° 0 mm 2 mps 759 mmHg 85%
    22:00 +8°C° 0 mm 2 mps 759 mmHg 86%
    23:00 +8°C° 0 mm 2 mps 759 mmHg 87%

    21 February, Thursday

    Time Temperature Precipitation Wind Pressure Humidity
    00:00 +8°C° 0 mm 2 mps 759 mmHg 88%
    01:00 +7°C° 0 mm 2 mps 759 mmHg 89%
    02:00 +7°C° 0 mm 2 mps 759 mmHg 90%
    03:00 +7°C° 0 mm 2 mps 760 mmHg 91%
    04:00 +6°C° 0 mm 2 mps 760 mmHg 92%
    05:00 +7°C° 0 mm 1 mps 760 mmHg 93%
    06:00 +7°C° 0 mm 1 mps 760 mmHg 94%
    07:00 +8°C° 0 mm 1 mps 760 mmHg 91%
    08:00 +8°C° 0 mm 1 mps 760 mmHg 88%
    09:00 +9°C° 0 mm 1 mps 761 mmHg 86%
    10:00 +10°C° 0 mm 2 mps 761 mmHg 79%
    11:00 +12°C° 0 mm 2 mps 761 mmHg 72%
    12:00 +14°C° 0 mm 2 mps 761 mmHg 65%
    13:00 +15°C° 0 mm 2 mps 760 mmHg 63%
    14:00 +15°C° 0 mm 2 mps 760 mmHg 60%
    15:00 +16°C° 0 mm 2 mps 760 mmHg 57%
    16:00 +14°C° 0 mm 1 mps 760 mmHg 62%
    17:00 +13°C° 0 mm 1 mps 760 mmHg 67%
    18:00 +11°C° 0 mm 0 mps 760 mmHg 72%
    19:00 +11°C° 0 mm 1 mps 760 mmHg 74%
    20:00 +11°C° 0 mm 1 mps 761 mmHg 77%
    21:00 +10°C° 0 mm 1 mps 761 mmHg 79%
    22:00 +10°C° 0 mm 1 mps 761 mmHg 81%
    23:00 +10°C° 0 mm 1 mps 761 mmHg 84%
    Show more